Погода в Кондопоге

Погода в Кондопоге : погода сейчас, прогноз погоды и архив. Всё, что Вы хотите узнать о погоде в Кондопоге!

Поиск расширенной информации на нашем сайте:

Другие новости

Новости СМИ2

Главная страница сайта

Новости сайта

03.07.2017

Напоминаем, что на нашем специализированном сайте Метеоцентр.Азия вы можете получить высокодетализированные автоматические прогнозы погоды по пунктам России, СНГ и мира в авиационном формате (включающие направление и скорость ветра, видимость, явления погоды, количество и форму облачности, нижнюю и верхнюю границу облачности).


Погода в Кондопоге - сегодня

Время (UTC), дата Ветер
(°,м/с) 
Видим.   Явления Облачность Т
(°С)
Тd
(°С)
f(%) Тe
(°С)
Pmin
(гПа)
dP
(гПа)
Po
(мм)
O2
(г/м3)
Тmin Tmax R s Состояние
почвы
15 21.09.18 220 (ЮЗ) 18000 м    н/о 
+15.4 +9.2 66 +16  1010.9  0.7  755  286           
21 21.09.18 140 (ЮВ) 20000 м    н/о 
+14.1 +12.7 91 +19  1008.9  -1.3  753  286           
00 22.09.18 140 (ЮВ) 20000 м    н/о 
+15.3 +12.8 85 +20  1006.9  -1.9  752  284           
03 22.09.18 140 (ЮВ) 20000 м    н/о 
+15.1 +12.6 85 +20  1004.9  -2  750  284  +12.9         
09 22.09.18 140 (ЮВ) 7-11  20000 м    н/о 
+19 +13.1 69 +25  999.1  -3.3  746  278           
15 22.09.18 220 (ЮЗ) 4{12}  20000 м    н/о 
+15.4 +7.7 60 +15  1000.1  747  284           
21 22.09.18 190 (Ю) 20000 м    н/о 
+12.2 +9.2 82 +12  1001  -0.2  747  287           
00 23.09.18 180 (Ю) 20000 м    н/о 
+11.6 +9.2 85 +11  1000.3  -0.7  747  287           
03 23.09.18 180 (Ю) 20000 м    н/о 
+11.2 +9.1 87 +11  999.3  -1  746  287  +11.2         
09 23.09.18 200 (Ю) 20000 м    н/о 
+13.5 +8.5 72 +13  997.4  -0.9  745  284           
12 23.09.18 200 (Ю) 20000 м    н/о 
+14.4 +6.2 58 +14  996.7  -0.7  744  284           
15 23.09.18 200 (Ю) 20000 м    н/о 
+9.5 +6.8 83 +9  997.4  0.6  745  289      0.9     
21 23.09.18 200 (Ю) 20000 м    н/о 
+8.2 +6.3 88 +8  997.7  0.5  745  290           
00 24.09.18 180 (Ю) 20000 м    н/о 
+8.4 +7.2 92 +8  998.3  0.6  745  290           
03 24.09.18 150 (ЮВ) 20000 м    н/о 
+8.7 +7.6 93 +9  998.7  0.4  746  290  +7.1    0.6     
09 24.09.18 170 (Ю) 20000 м    н/о 
+8.8 +7.3 90 +8  1000  0.5  747  290           
12 24.09.18 210 (ЮЗ) 20000 м    н/о 
+11 +6.8 75 +11  1000.9  0.9  747  288           
15 24.09.18 210 (ЮЗ) 13000 м    н/о 
+9.1 +4.9 75 +9  1001.7  0.8  748  291         
18 24.09.18 280 (З) 20000 м    ясно 
+5.6 +4.8 95 +6  1002.7  0.9  749  295    +12.1     
21 24.09.18 360 (С) 15000 м    н/о 
+4.1 +3.4 95 +5  1003.6  0.9  749  297           
00 25.09.18 320 (СЗ) 20000 м    н/о 
+2.7 +2 95 +3  1003.5  -0.1  749  299           
03 25.09.18 тихо ()   20000 м    н/о 
+2.3 +1.4 94 +2  1004.1  0.6  750  299  +2         
09 25.09.18 320 (СЗ) 20000 м    н/о 
+6.4 +2.7 77 +5  1006.5  1.4  751  295           
12 25.09.18 320 (СЗ) 20000 м    н/о 
+7.5 +4.9 84 +7  1007.7  1.2  752  294           
15 25.09.18 310 (СЗ) 20000 м    н/о 
+7.8 +2.5 69 +7  1009.4  1.7  754  295      0.4     
Время (UTC), дата Ветер
(°,м/с) 
Видим.   Явления Облачность Т
(°С)
Тd
(°С)
f(%) Тe
(°С)
Pmin
(гПа)
dP
(гПа)
Po
(мм)
O2
(г/м3)
Тmin Tmax R s Состояние
почвы

Для получения пояснительной информации подведите курсор к названию столбца.

ПОГОДА в Кондопоге - архив

Всё, что Вы хотите узнать о погоде в Кондопоге - удобно и подробно!

Выберите нужную дату (начиная с 1 января 2015* года) и нажмите кнопку "Найти".
Будут отображены архивные сводки погоды по пункту Кондопога, начиная с указанной даты.


Отображать данные в формате CSV (для использования в таблицах Excel)


Внимание! Наш архив погоды предназначен исключительно для личного некоммерческого использования в познавательных целях. Если Вам необходимы официальные справки о состоянии погоды (для производственных, юридических, коммерческих и т.п. целей), обращайтесь в органы Росгидромета.

*Примечание: данная дата относится к архиву по метеостанциям СССР (Россия, СНГ, Балтия).
Архив по метеостанциям Зарубежной Европы и Азии (кроме Китая) хранится 10 дней, по другим регионам земного шара (Китай, Африка, Америка, Австралия, Океания) - 1 день.

Кондопога - район местоположения метеостанции


Название, широта, долгота, высота метеостанции:
Кондопога 62.2°ш. 34.3°д. 38 м над ур. моря [Российская Федерация]

Дополнительная информация

В oтличие oт бoльшинства пoгoдных сайтoв мы публикуем пoдрoбную метеoинфoрмацию в детальнoм прoфессиoнальнoм фoрмате.

Характеристики температуры и влажнoсти вoздуха измеряются на высoте 2 м в тени вдали oт зданий и деревьев.
Скoрoсть ветра измеряется на высoте 10 м (на урoвне рoста челoвека скoрoсть ветра ниже в 1.5-2 раза). Если метеoстанция нахoдится в гoрoде или в лесу, тo скoрoсть ветра занижена на 2-4 м/с пo сравнению с oткрытым местoм. Скoрoсть ветра над акватoриями крупных рек и oзёр, а также на вершинах хoлмoв на 2-5 м/с выше, чем в oбычных услoвиях.
Атмoсфернoе давление в разных тoчках местнoсти мoжет значительнo oтличаться oт давления на метеoстанции, в зависимoсти oт услoвий рельефа (при пoдъёме на 10 м давление пoнижается примернo на 1 мм рт.ст.).